Date String (YYYY-MM-DD hh:mm:ss) UTC,Instrument flags,Ambient pressure (hPa),Sample flow (lpm),Bypass flow (lpm),Sample temperature (°C),Ambient temperature (°C),ASC tube jacket temperature (°C),LED temperature (°C),Box temperature (°C),Sample RH (%),Span deviation,Mass concentration (μg/m³),Mass concentration (μg/m³),Mass concentration (μg/m³)
DateTimeUTC,F1_M11,P_M11,Q1_M11,Q2_M11,T1_M11,T2_M11,T3_M11,T4_M11,T5_M11,U1_M11,ZSPAN_M11,X0_M11,X2_M11,X1_M11
2021-10-06 15:00:00,,0827.3,5.00,0.00,30.5,29.7,00.0,39.5,32.2,15.1,0000.0,0011.86,0005.27,0004.14
2021-10-06 15:01:00,,0827.3,5.01,0.00,30.5,29.7,00.0,39.5,32.3,15.8,0000.0,0012.09,0005.33,0004.15
2021-10-06 15:02:00,,0827.3,5.00,0.00,30.5,29.7,00.0,39.5,32.3,15.8,0000.2,0011.90,0005.38,0004.15
2021-10-06 15:03:00,,0827.3,4.99,0.00,30.5,29.7,00.0,39.6,32.3,15.8,0003.0,0012.29,0005.44,0004.15
2021-10-06 15:04:00,,0827.2,5.01,0.00,30.6,29.7,00.0,39.6,32.3,15.3,0002.9,0012.74,0005.43,0004.15
2021-10-06 15:05:00,,0827.2,5.00,0.00,30.6,29.8,00.0,39.6,32.3,15.8,0002.9,0013.48,0005.43,0004.15
2021-10-06 15:06:00,,0827.2,5.00,0.00,30.6,29.8,00.0,39.6,32.3,14.8,0003.0,0014.41,0005.39,0004.16
2021-10-06 15:07:00,,0827.2,5.00,0.00,30.6,29.8,00.0,39.6,32.3,14.3,0003.0,0014.66,0005.34,0004.14
2021-10-06 15:08:00,,0827.3,4.99,0.00,30.6,29.8,00.0,39.6,32.4,14.4,0003.1,0015.31,0005.34,0004.12
2021-10-06 15:09:00,,0827.2,5.00,0.00,30.6,29.8,00.0,39.6,32.4,14.2,0002.6,0016.31,0005.39,0004.12
2021-10-06 15:10:00,,0827.4,4.99,0.00,30.6,29.9,00.0,39.7,32.4,14.5,0001.8,0016.57,0005.42,0004.12
2021-10-06 15:11:00,,0827.3,5.00,0.00,30.7,29.9,00.0,39.7,32.4,14.3,0001.4,0016.72,0005.43,0004.12
2021-10-06 15:12:00,,0827.3,5.01,0.00,30.7,29.9,00.0,39.7,32.4,15.4,0001.1,0017.43,0005.42,0004.13
2021-10-06 15:13:00,,0827.3,5.00,0.00,30.7,29.9,00.0,39.7,32.5,15.6,0000.3,0019.08,0005.43,0004.12
2021-10-06 15:14:00,,0827.3,5.00,0.00,30.7,29.7,00.0,39.7,32.4,15.5,0000.8,0018.81,0005.39,0004.11
2021-10-06 15:15:00,,0827.2,5.00,0.00,30.6,28.0,00.0,39.7,31.9,15.1,0001.6,0018.30,0005.40,0004.13
2021-10-06 15:16:00,,0827.3,5.01,0.00,30.5,26.9,00.0,39.7,31.7,14.2,0001.8,0017.91,0005.42,0004.16
2021-10-06 15:17:00,,0827.2,4.99,0.00,30.4,27.1,00.0,39.6,31.7,14.1,0002.1,0017.17,0005.41,0004.17
2021-10-06 15:18:00,,0827.2,4.99,0.00,30.3,27.5,00.0,39.6,31.7,14.4,0002.1,0017.74,0005.46,0004.19
2021-10-06 15:19:00,,0827.2,5.00,0.00,30.2,27.9,00.0,39.5,31.7,14.5,0002.2,0017.28,0005.47,0004.20
2021-10-06 15:20:00,,0827.1,5.00,0.00,30.2,28.2,00.0,39.5,31.8,14.8,0002.8,0017.02,0005.50,0004.23
2021-10-06 15:21:00,,0827.2,5.01,0.00,30.2,28.4,00.0,39.4,31.8,14.3,0002.0,0016.91,0005.49,0004.23
2021-10-06 15:22:00,,0827.2,4.98,0.00,30.2,28.6,00.0,39.4,31.9,14.4,0002.7,0016.63,0005.48,0004.24
2021-10-06 15:23:00,,0827.2,5.01,0.00,30.3,28.8,00.0,39.4,31.9,15.0,0002.1,0015.57,0005.48,0004.25
2021-10-06 15:24:00,,0827.2,5.00,0.00,30.3,28.9,00.0,39.4,32.0,15.8,0000.0,0014.45,0005.46,0004.25
2021-10-06 15:25:00,,0827.2,4.99,0.00,30.3,29.1,00.0,39.4,32.0,15.8,0000.4,0014.95,0005.49,0004.24
2021-10-06 15:26:00,,0827.2,5.01,0.00,30.3,29.2,00.0,39.4,32.0,16.1,0000.0,0015.65,0005.50,0004.22
2021-10-06 15:27:00,,0827.2,4.99,0.00,30.3,29.2,00.0,39.4,32.0,16.2,0000.9,0015.43,0005.48,0004.19
2021-10-06 15:28:00,,0827.1,5.01,0.00,30.3,29.3,00.0,39.4,32.0,16.2,0000.0,0016.33,0005.51,0004.18
2021-10-06 15:29:00,,0827.1,5.01,0.00,30.3,29.4,00.0,39.4,32.1,16.3,0000.0,0016.78,0005.50,0004.18
2021-10-06 15:30:00,,0827.2,4.99,0.00,30.4,29.4,00.0,39.4,32.1,16.3,0000.9,0017.21,0005.49,0004.18
2021-10-06 15:31:00,,0827.2,5.01,0.00,30.4,29.5,00.0,39.4,32.1,15.9,0001.8,0017.09,0005.46,0004.17
2021-10-06 15:32:00,,0827.2,5.00,0.00,30.4,29.6,00.0,39.4,32.2,15.4,0002.1,0017.54,0005.48,0004.18
2021-10-06 15:33:00,,0827.2,5.00,0.00,30.4,29.6,00.0,39.5,32.2,15.7,0003.0,0017.91,0005.48,0004.18
2021-10-06 15:34:00,,0827.2,5.01,0.00,30.5,29.6,00.0,39.5,32.3,15.5,0003.5,0018.35,0005.48,0004.17
2021-10-06 15:35:00,,0827.2,4.99,0.00,30.5,29.7,00.0,39.5,32.3,15.7,0003.6,0018.12,0005.51,0004.17
2021-10-06 15:36:00,,0827.2,5.00,0.00,30.5,29.7,00.0,39.5,32.3,15.6,0003.7,0017.32,0005.46,0004.17
2021-10-06 15:37:00,,0827.2,5.01,0.00,30.5,29.7,00.0,39.5,32.3,15.1,0003.9,0016.36,0005.40,0004.16
2021-10-06 15:38:00,,0827.2,4.99,0.00,30.6,29.7,00.0,39.5,32.4,15.3,0003.9,0016.39,0005.34,0004.17
2021-10-06 15:39:00,,0827.2,5.01,0.00,30.6,29.6,00.0,39.6,32.3,15.8,0003.9,0015.26,0005.35,0004.18
2021-10-06 15:40:00,,0827.2,5.00,0.00,30.5,27.8,00.0,39.6,31.9,16.3,0003.9,0014.03,0005.40,0004.19
2021-10-06 15:41:00,,0827.1,5.01,0.00,30.4,26.7,00.0,39.5,31.6,16.4,0003.8,0013.50,0005.48,0004.19
2021-10-06 15:42:00,,0827.2,5.01,0.00,30.3,26.9,00.0,39.5,31.7,16.3,0003.7,0014.33,0005.52,0004.20
2021-10-06 15:43:00,,0827.2,4.99,0.00,30.2,27.3,00.0,39.4,31.7,16.4,0003.3,0014.36,0005.56,0004.20
2021-10-06 15:44:00,,0827.2,4.99,0.00,30.2,27.7,00.0,39.4,31.7,16.7,0003.1,0014.66,0005.64,0004.21
2021-10-06 15:45:00,,0827.1,5.01,0.00,30.2,28.1,00.0,39.4,31.7,16.8,0003.2,0014.81,0005.70,0004.21
2021-10-06 15:46:00,,0827.1,5.00,0.00,30.2,28.3,00.0,39.3,31.8,16.8,0003.3,0015.98,0005.70,0004.20
2021-10-06 15:47:00,,0827.1,5.01,0.00,30.2,28.6,00.0,39.3,31.9,16.7,0003.3,0016.20,0005.69,0004.20
2021-10-06 15:48:00,,0827.2,4.99,0.00,30.2,28.8,00.0,39.3,31.9,16.6,0003.1,0016.69,0005.74,0004.22
2021-10-06 15:49:00,,0827.2,5.01,0.00,30.2,28.9,00.0,39.3,31.9,16.6,0002.8,0016.85,0005.82,0004.23
2021-10-06 15:50:00,,0827.5,5.00,0.00,30.2,29.0,00.0,39.3,32.0,16.6,0002.8,0017.35,0005.77,0004.23
2021-10-06 15:51:00,,0827.0,4.99,0.00,30.3,29.1,00.0,39.3,32.0,16.7,0003.1,0018.01,0005.76,0004.23
2021-10-06 15:52:00,,0827.0,5.00,0.00,30.3,29.2,00.0,39.3,32.1,16.5,0003.4,0018.36,0005.73,0004.23
2021-10-06 15:53:00,,0826.9,5.01,0.00,30.3,29.3,00.0,39.3,32.1,16.4,0003.7,0018.08,0005.72,0004.23
2021-10-06 15:54:00,,0826.9,5.00,0.00,30.3,29.4,00.0,39.4,32.1,16.2,0004.0,0018.06,0005.73,0004.22
2021-10-06 15:55:00,,0827.1,4.99,0.00,30.4,29.4,00.0,39.4,32.1,16.1,0002.2,0017.97,0005.71,0004.22
2021-10-06 15:56:00,,0827.3,5.01,0.00,30.4,29.5,00.0,39.4,32.2,15.9,0003.3,0018.05,0005.69,0004.23
2021-10-06 15:57:00,,0826.9,5.00,0.00,30.4,29.5,00.0,39.4,32.2,15.7,0003.1,0017.12,0005.74,0004.26
2021-10-06 15:58:00,,0826.9,5.00,0.00,30.5,29.5,00.0,39.4,32.2,15.7,0003.0,0017.30,0005.79,0004.25
2021-10-06 15:59:00,,0826.9,5.00,0.00,30.4,28.0,00.0,39.4,31.9,15.7,0002.9,0016.93,0005.77,0004.25
